THOR ABLESTAR DEB, 3124

Orbit data source: Space-Track

THOR ABLESTAR DEB, 3124 is space debris in LEO originally from a launch on Thu, 29 Jun 1961 UTC launched from the Air Force Eastern Test Range (AFETR). Debris objects in space refer to the collection of defunct objects orbiting the Earth. Examples of debris include non-operational satellites, rocket bodies, and fragments generated from explosions, collisions, or faulty payload assembly.

Loading next visibility...
Identifier
3124, 1961-015HX
Orbit
LEO
Country
Flag of USUS
Related business
Manufacturer
Unknown
Mission
Spacecraft
Bus & Motor
Unknown
Mass
Unknown
Launch date (UTC)
1961-06-29 (64 years ago)
Launch vehicle
Unknown
Launch site
Air Force Eastern Test Range (AFETR)
Object type
Payload
Rocket body
Debris
Shape & HBR
Unknown shape, 0.1 m
Radar Cross Section
Small (<0.1 m²)

Expand to show TLE details & history
Last TLE update: 23 hours ago

TLE from 23 hours ago
0 THOR ABLESTAR DEB
1 03124U 61015HX  25350.39105772  .00000910  00000-0  97613-3 0  9991
2 03124  66.9877 342.0010 0323813 208.7286 149.5606 13.57202141144330
Epoch: 2025-12-16T09:23Z
TLE epoch observation values (Epoch: 2025-12-16T09:23:07.387Z)
Latitude
0.00003°
Longitude
115.94429°
Altitude
1,257.136 km
Speed
7.125 km/s
True Right ascension
22h 48m 00s
True Declination
0° 00' 00"
Sunlit
Object was in daylight at epoch
Visualization orbit readout
Latitude
Unknown
Longitude
Unknown
Altitude
Unknown
Speed
Unknown
Apparent Right ascension
Unknown
Apparent Declination
Unknown
Sunlit
N/A
Visualization observer readout
Local Sidereal Time
07:23:39
Azimuth
Unknown
Elevation
Unknown
Doppler factor
Unknown
Orbital elements
Apogee altitude
1,284.621 km
Perigee altitude
803.926 km
Semi-major axis
7,422.411 km
Eccentricity
0.03238
Inclination
66.9877°
RAAN
342.001°
Arg. of periapsis
208.7286°
True anomaly
151.37673°
Mean anomaly
149.5606°
Eccentric anomaly
150.47491°
Mean motion
3.39411 °/min
Orbital period
106.07 mins
BSTAR
0.00097613
Loading maneuver chart data...
Computing Atmospheric mass density...

Documentation

Showing up to 5 results
|